Showing default

VERTECS, 69506

Orbit data source: Space-Track

VERTECS, 69506 is a payload satellite owned by Kyutech (JP) in SSO that was launched on Fri, 12 Jun 2026 UTC via a H3-30S launch vehicle from the Tanegashima Space Center (TNSTA). Payload-class satellites include a variety of spacecraft equipped with specific instruments for various scientific and technological missions. These include communications satellites like Starlink; space stations such as the ISS; scientific satellites like the Hubble; Earth observation satellites from companies like Planet Labs, Umbra, and HawkEye 360; GPS; miniature CubeSats for education and research; and military/defense satellites.

Loading next visibility...
Identifier
69506, 2026-132E
Orbit
SSO
Country
Flag of JPJP / JPN
Related business
Manufacturer
Kyutech
Mission
Operational spacecraft
Bus & Motor
CUBESAT 6U, Unknown motor
Mass
9 kg wet, 9 kg dry
Launch date (UTC)
2026-06-12 (1 month ago)
Launch vehicle
H3-30S
Launch site
Tanegashima Space Center (TNSTA)
Object type
Payload
Rocket body
Debris
Shape & HBR
Unknown shape, 14.5 m
Radar Cross Section
Medium (>0.1 m² and <1 m²)

Expand to show TLE details & history
Last TLE update: 5 hours ago

TLE from 5 hours ago
0 VERTECS
1 69506U 26132E   26193.14900222  .00001058  00000-0  87445-4 0  9997
2 69506  97.6825 256.5726 0015471 217.0754 142.9402 15.00985096  4517
Epoch: 2026-07-12T03:34Z
TLE epoch observation values (Epoch: 2026-07-12T03:34:33.791Z)
Latitude
-0.00008°
Longitude
-87.1202°
Altitude
575.492 km
Speed
7.568 km/s
True Right ascension
17h 06m 17s
True Declination
0° 00' 00"
Sunlit
Object was in full shadow at epoch
Visualization orbit readout
Latitude
Unknown
Longitude
Unknown
Altitude
Unknown
Speed
Unknown
Apparent Right ascension
Unknown
Apparent Declination
Unknown
Sunlit
N/A
Visualization observer readout
Local Sidereal Time
21:24:58
Azimuth
Unknown
Elevation
Unknown
Doppler factor
Unknown
Orbital elements
Apogee altitude
571.596 km
Perigee altitude
550.125 km
Semi-major axis
6,938.998 km
Eccentricity
0.00155
Inclination
97.6825°
RAAN
256.5726°
Arg. of periapsis
217.0754°
True anomaly
143.04688°
Mean anomaly
142.9402°
Eccentric anomaly
142.99355°
Mean motion
3.7549 °/min
Orbital period
95.87 mins
BSTAR
0.000087445
Loading maneuver chart data...
Computing Atmospheric mass density...
Loading historical data...
Loading historical data...
Loading historical data...
Loading historical data...
Loading historical data...
Loading historical data...
Loading historical data...
Other satellites on launch #132 in the year 2026 (2026-06-12 UTC)

Documentation

Showing up to 5 results
|